TimeEDT,TemperatureF,Dew PointF,Humidity,Sea Level PressureIn,VisibilityMPH,Wind Direction,Wind SpeedMPH,Gust SpeedMPH,PrecipitationIn,Events,Conditions,WindDirDegrees,DateUTC
12:51 AM,63.0,28.9,28,30.00,10.0,South,9.2,-,N/A,,Clear,180,2013-04-07 04:51:00
1:51 AM,61.0,28.0,29,30.00,10.0,South,9.2,-,N/A,,Clear,180,2013-04-07 05:51:00
2:51 AM,61.0,30.9,32,29.98,10.0,South,8.1,-,N/A,,Clear,170,2013-04-07 06:51:00
3:51 AM,61.0,32.0,34,29.96,10.0,South,8.1,-,N/A,,Clear,180,2013-04-07 07:51:00
4:51 AM,60.1,33.1,36,29.96,10.0,South,10.4,-,N/A,,Clear,180,2013-04-07 08:51:00
5:51 AM,57.9,33.1,39,29.97,10.0,SSW,9.2,-,N/A,,Clear,200,2013-04-07 09:51:00
6:51 AM,57.9,33.1,39,29.98,10.0,South,10.4,16.1,N/A,,Clear,190,2013-04-07 10:51:00
7:51 AM,59.0,34.0,39,29.99,10.0,SSW,10.4,19.6,N/A,,Clear,200,2013-04-07 11:51:00
8:51 AM,61.0,35.1,38,30.00,10.0,South,13.8,19.6,N/A,,Clear,190,2013-04-07 12:51:00
9:51 AM,66.0,37.0,34,30.00,10.0,SSW,13.8,20.7,N/A,,Clear,210,2013-04-07 13:51:00
10:51 AM,66.9,37.9,34,30.00,10.0,SSW,12.7,25.3,N/A,,Clear,210,2013-04-07 14:51:00
11:51 AM,69.1,39.9,35,30.00,10.0,SW,16.1,25.3,N/A,,Scattered Clouds,230,2013-04-07 15:51:00
12:51 PM,71.1,42.1,35,29.99,10.0,SW,13.8,25.3,N/A,,Overcast,220,2013-04-07 16:51:00
1:51 PM,70.0,42.1,36,29.98,10.0,SSW,15.0,21.9,N/A,,Overcast,210,2013-04-07 17:51:00
2:51 PM,73.0,42.1,33,29.96,10.0,SW,12.7,25.3,N/A,,Overcast,230,2013-04-07 18:51:00
3:51 PM,72.0,42.1,34,29.96,10.0,WSW,17.3,26.5,N/A,,Overcast,240,2013-04-07 19:51:00
4:51 PM,73.9,42.1,32,29.95,10.0,SW,12.7,20.7,N/A,,Mostly Cloudy,220,2013-04-07 20:51:00
5:51 PM,73.0,43.0,34,29.96,10.0,WSW,6.9,-,N/A,,Overcast,240,2013-04-07 21:51:00
6:51 PM,71.1,42.1,35,29.97,10.0,WSW,5.8,-,N/A,,Overcast,240,2013-04-07 22:51:00
7:51 PM,69.1,44.1,40,29.98,10.0,NNW,5.8,-,N/A,,Overcast,340,2013-04-07 23:51:00
8:51 PM,66.9,45.0,45,29.98,10.0,Calm,Calm,-,N/A,,Overcast,0,2013-04-08 00:51:00
9:51 PM,64.0,46.0,52,29.99,10.0,Calm,Calm,-,N/A,,Overcast,0,2013-04-08 01:51:00
10:51 PM,64.0,45.0,50,29.99,10.0,Calm,Calm,-,N/A,,Mostly Cloudy,0,2013-04-08 02:51:00
11:51 PM,59.0,45.0,60,30.00,10.0,ESE,3.5,-,N/A,,Clear,110,2013-04-08 03:51:00